Cozieni, Romania

9:40 AM EEST on May 23, 2017 (GMT +0300)
Cozieni

Weather History for 15420 - March, 2009

Change the Weather History Date:

Thursday, March 26, 2009

  Actual Average Record
Temperature  
Mean Temperature 33 °F -  
Max Temperature 47 °F 62 °F - ()
Min Temperature 19 °F 41 °F - ()
Degree Days  
Heating Degree Days 32    
Moisture  
Dew Point 20 °F    
Average Humidity 53    
Maximum Humidity 100    
Minimum Humidity 14    
Precipitation  
Precipitation 0.00 in 0.06 in - ()
Sea Level Pressure  
Sea Level Pressure 29.84 in    
Wind  
Wind Speed 2 mph ()    
Max Wind Speed 7 mph    
Max Gust Speed -    
Visibility 6.0 miles    
Events      
T = Trace of Precipitation, MM = Missing Value Source: Averaged Metar Reports

Daily Weather History Graph

Daily Weather History Graph

Search for Another Location

Airport or City:

Trip Planner

Search our weather history database for the weather conditions in past years. The results will help you decide how hot, cold, wet, or windy it might be!

Date:

Astronomy

Mar. 26, 2009 Rise Set
Actual Time 6:07 AM EET 6:35 PM EET
Civil Twilight 5:38 AM EET 7:04 PM EET
Nautical Twilight 5:04 AM EET 7:39 PM EET
Astronomical Twilight 4:28 AM EET 8:14 PM EET
Moon 5:38 AM EET (3/26) 6:41 PM EET (3/26)
Length of Visible Light 13h 26m
Length of Day
12h 27m
Waning Crescent, 0% of the Moon is Illuminated
Mar 26
Waning Crescent
Mar 26
New
Apr 2
First Quarter
Apr 9
Full
Apr 17
Last Quarter

Hourly Weather History & Observations

Time (EET) Temp. Windchill Dew Point Humidity Pressure Visibility Wind Dir Wind Speed Gust Speed Precip Events Conditions
12:00 AM 26 °F - 20 °F 69% 29.78 in 6 mi Calm Calm - -  
12:00 AM 32.0 °F - 21.2 °F 64% 29.74 in - Calm Calm - N/A   Clear
12:30 AM 32.0 °F - 24.8 °F 75% 29.74 in - West 2.3 mph - N/A   Clear
1:00 AM 25 °F - 21 °F 79% 29.79 in 6 mi West 2.2 mph - -  
1:00 AM 30.2 °F - 24.8 °F 80% 29.77 in - Calm Calm - N/A   Clear
1:30 AM 30.2 °F 26.7 °F 26.6 °F 86% 29.77 in - WSW 3.5 mph - N/A   Clear
2:00 AM 25 °F - 22 °F 84% 29.81 in 6 mi West 2.2 mph - -  
2:00 AM 28.4 °F - 26.6 °F 93% 29.77 in - Variable 1.2 mph - N/A   Clear
2:30 AM 30.2 °F - 28.4 °F 93% 29.77 in - Variable 1.2 mph - N/A   Clear
3:00 AM 24 °F - 21 °F 84% 29.81 in 6 mi North 2.2 mph - -  
3:00 AM 28.4 °F 24.6 °F 28.4 °F 100% 29.77 in - WNW 3.5 mph - N/A   Unknown
4:00 AM 22 °F - 20 °F 91% 29.81 in 6 mi NNW 2.2 mph - -  
4:00 AM 28.4 °F - 26.6 °F 93% 29.77 in - West 1.2 mph - N/A   Clear
4:30 AM 26.6 °F - 26.6 °F 100% 29.77 in - West 1.2 mph - N/A   Clear
5:00 AM 21 °F - 20 °F 95% 29.82 in 6 mi WNW 2.2 mph - -  
5:00 AM 28.4 °F - 26.6 °F 93% 29.80 in - WSW 2.3 mph - N/A   Clear
5:30 AM 28.4 °F - 26.6 °F 93% 29.80 in - West 2.3 mph - N/A   Clear
6:00 AM 21 °F - 20 °F 95% 29.82 in 6 mi NW 2.2 mph - -  
6:00 AM 26.6 °F - 26.6 °F 100% 29.80 in - West 1.2 mph - N/A   Clear
6:30 AM 28.4 °F - 26.6 °F 93% 29.80 in - Calm Calm - N/A   Clear
7:00 AM 21 °F - 21 °F 99% 29.84 in 6 mi Calm Calm - -   Mostly Cloudy
7:00 AM 28.4 °F - 28.4 °F 100% 29.83 in - Variable 2.3 mph - N/A   Clear
7:30 AM 32.0 °F - 32.0 °F 100% 29.83 in - Calm Calm - N/A   Clear
8:00 AM 33 °F - 31 °F 87% 29.84 in 6 mi Calm Calm - -   Clear
8:00 AM 37.4 °F - 24.8 °F 60% 29.83 in - Calm Calm - N/A   Clear
8:30 AM 39.2 °F - 19.4 °F 45% 29.83 in - Calm Calm - N/A   Clear
9:00 AM 39 °F - 17 °F 28% 29.86 in 6 mi NNW 2.2 mph - -   Clear
9:00 AM 39.2 °F - 17.6 °F 42% 29.83 in - Variable 2.3 mph - N/A   Clear
9:30 AM 39.2 °F - 15.8 °F 39% 29.86 in - Variable 1.2 mph - N/A   Clear
10:00 AM 42 °F - 14 °F 19% 29.87 in 6 mi SE 2.2 mph - -   Scattered Clouds
10:00 AM 41.0 °F - 15.8 °F 36% 29.86 in - Variable 2.3 mph - N/A   Clear
10:30 AM 42.8 °F - 15.8 °F 34% 29.86 in - Variable 1.2 mph - N/A   Clear
11:00 AM 44 °F - 14 °F 17% 29.87 in 6 mi SE 4.5 mph - -   Scattered Clouds
11:00 AM 42.8 °F - 17.6 °F 36% 29.86 in - Variable 1.2 mph - N/A   Clear
11:30 AM 42.8 °F 41.1 °F 17.6 °F 36% 29.86 in - WSW 3.5 mph - N/A   Clear
12:00 PM 44 °F - 13 °F 16% 29.86 in 6 mi SW 4.5 mph - -   Partly Cloudy
12:00 PM 42.8 °F 41.1 °F 14.0 °F 31% 29.86 in - WSW 3.5 mph - N/A   Clear
12:30 PM 44.6 °F - 15.8 °F 31% 29.83 in - Variable 2.3 mph - N/A   Clear
1:00 PM 45 °F - 13 °F 15% 29.86 in 6 mi South 4.5 mph - -   Partly Cloudy
1:00 PM 44.6 °F 43.1 °F 17.6 °F 34% 29.83 in - East 3.5 mph - N/A   Clear
1:30 PM 44.6 °F 43.1 °F 15.8 °F 31% 29.83 in - Variable 3.5 mph - N/A   Clear
2:00 PM 46 °F - 13 °F 15% 29.86 in 6 mi SW 4.5 mph - -   Partly Cloudy
2:30 PM 46.4 °F - 17.6 °F 32% 29.83 in - Variable 2.3 mph - N/A   Clear
3:00 PM 47 °F - 14 °F 14% 29.84 in 6 mi WNW 2.2 mph - -   Partly Cloudy
3:00 PM 46.4 °F 45.2 °F 17.6 °F 32% 29.83 in - SSW 3.5 mph - N/A   Clear
3:30 PM 46.4 °F 42.9 °F 17.6 °F 32% 29.83 in - SW 6.9 mph - N/A   Clear
4:00 PM 47 °F - 14 °F 14% 29.85 in 6 mi WNW 6.7 mph - -   Partly Cloudy
4:00 PM 44.6 °F 43.1 °F 15.8 °F 31% 29.83 in - SSW 3.5 mph - N/A   Clear
4:30 PM 46.4 °F 45.2 °F 15.8 °F 29% 29.83 in - SE 3.5 mph - N/A   Clear
5:00 PM 46 °F - 13 °F 14% 29.85 in 6 mi South 2.2 mph - -   Partly Cloudy
5:00 PM 44.6 °F 42.2 °F 15.8 °F 31% 29.83 in - NNE 4.6 mph - N/A   Clear
5:30 PM 44.6 °F 42.2 °F 19.4 °F 37% 29.83 in - North 4.6 mph - N/A   Mostly Cloudy
6:00 PM 45 °F - 13 °F 15% 29.86 in 6 mi NNE 4.5 mph - -   Scattered Clouds
6:00 PM 44.6 °F 41.4 °F 19.4 °F 37% 29.83 in - East 5.8 mph - N/A   Partly Cloudy
6:30 PM 42.8 °F 39.3 °F 19.4 °F 39% 29.86 in - East 5.8 mph - N/A   Clear
7:00 PM 42 °F - 11 °F 16% 29.87 in 6 mi ESE 4.5 mph - -   Partly Cloudy
7:00 PM 41.0 °F 38.0 °F 21.2 °F 45% 29.86 in - East 4.6 mph - N/A   Clear
7:30 PM 41.0 °F 39.0 °F 19.4 °F 42% 29.86 in - ESE 3.5 mph - N/A   Clear
8:00 PM 39 °F - 13 °F 22% 29.88 in 6 mi ESE 2.2 mph - -  
8:00 PM 39.2 °F - 23.0 °F 52% 29.86 in - East 2.3 mph - N/A   Clear
8:30 PM 41.0 °F - 19.4 °F 42% 29.89 in - Variable 2.3 mph - N/A   Clear
9:00 PM 31 °F - 15 °F 37% 29.89 in 6 mi East 2.2 mph - -   Partly Cloudy
9:00 PM 41.0 °F - 19.4 °F 42% 29.89 in - Calm Calm - N/A   Clear
9:30 PM 41.0 °F - 19.4 °F 42% 29.89 in - Calm Calm - N/A   Clear
10:00 PM 29 °F - 19 °F 55% 29.91 in 6 mi Calm Calm - -   Scattered Clouds
10:00 PM 39.2 °F - 19.4 °F 45% 29.89 in - Variable 2.3 mph - N/A   Clear
10:30 PM 37.4 °F - 21.2 °F 52% 29.89 in - Variable 1.2 mph - N/A   Clear
11:00 PM 29 °F - 21 °F 62% 29.92 in 6 mi Calm Calm - -   Mostly Cloudy
11:00 PM 37.4 °F - 21.2 °F 52% 29.89 in - Calm Calm - N/A   Clear
11:30 PM 37.4 °F - 23.0 °F 56% 29.92 in - Calm Calm - N/A   Clear